SCP
0 0 0 0 0 0 0 0 0 0 0 1 1 1 1 1 1 1 2 2 2 2 2 2 2 2 2 3 3 3 3 3 3 2 2 2 2 2 2 3 3 3 2 2
0 0 0 0 0 0 0 0 0 0 0 1 0 1 1 1 1 1 1 2 2 3 3 3 2 2 2 3 3 3 3 3 3 3 2 2 2 2 2 3 4 3 3 3
0 0 0 0 0 0 0 0 0 0 0 0 0 0 1 1 1 1 1 1 2 3 3 3 3 2 2 2 2 3 3 3 3 2 2 2 2 2 2 4 5 5 5 5
0 0 0 0 0 0 0 0 0 0 0 0 0 1 1 1 1 1 1 1 1 2 3 3 3 3 3 2 2 3 4 4 3 3 2 2 2 2 2 4 5 6 6 6
0 0 0 0 0 0 0 0 0 0 0 0 0 0 1 1 0 0 1 1 1 2 3 3 4 3 3 3 4 6 7 7 6 5 4 3 3 2 3 3 5 7 7 6
0 0 0 0 0 0 0 0 0 0 0 0 0 0 1 1 1 1 1 1 1 2 3 4 5 6 6 6 7 9 10 9 8 7 6 5 5 4 3 4 5 6 6 6
0 0 0 0 0 0 0 0 1 0 0 0 0 1 1 1 1 1 1 1 2 2 4 6 8 10 10 9 7 8 9 10 9 9 9 8 7 5 4 4 5 6 6 6
0 0 0 0 0 0 0 0 0 0 0 0 0 1 2 2 1 2 2 2 3 3 4 7 9 11 10 8 6 6 8 9 10 11 12 11 9 7 5 5 6 6 6 6
0 0 0 0 0 0 0 0 0 0 0 0 0 1 2 2 1 1 2 2 2 3 3 5 7 8 7 7 6 6 7 9 9 11 12 12 10 8 7 7 7 8 9 10
0 0 0 0 0 0 0 0 0 0 0 0 0 1 1 2 1 1 1 2 2 2 3 4 6 6 7 7 8 8 8 7 7 8 10 10 10 9 9 9 9 11 13 15
0 0 0 0 0 0 0 0 0 0 0 0 0 1 1 1 1 2 1 2 2 3 3 5 6 8 9 10 10 9 8 7 7 7 8 9 9 10 10 9 9 10 12 12
0 0 0 0 0 0 0 0 0 0 1 1 0 1 1 1 2 2 2 2 3 4 5 6 6 8 10 10 10 9 9 8 7 7 7 7 8 8 9 8 7 7 7 7
0 0 0 0 0 0 0 0 0 0 1 0 0 1 1 2 2 2 2 3 5 6 7 6 7 9 10 11 10 11 12 10 9 8 7 5 5 6 6 6 6 6 5 5
0 0 0 0 0 0 0 0 0 0 0 0 1 1 2 3 3 3 3 4 5 6 7 6 7 10 11 12 12 14 14 13 10 8 7 6 5 5 6 7 7 6 5 4
0 0 0 0 0 0 0 0 0 0 0 0 1 1 2 3 3 3 3 4 5 6 6 5 7 9 12 14 15 17 17 15 11 9 8 8 7 7 8 8 7 6 5 4
0 0 0 0 0 0 0 0 0 0 0 0 1 1 2 3 3 3 5 6 7 7 5 5 6 9 13 16 18 19 18 14 11 10 9 9 9 9 9 9 8 6 5 4
1 1 1 1 1 1 0 0 0 1 1 1 1 1 3 3 3 5 7 8 8 7 6 7 8 12 15 17 18 17 15 13 13 12 11 10 11 11 10 9 8 7 5 4
2 2 2 1 1 1 1 1 1 1 1 1 1 2 3 4 5 7 10 10 9 8 8 10 12 14 14 14 14 13 12 13 14 15 15 15 15 13 11 9 8 7 6 5
3 3 2 1 1 1 1 1 1 1 1 1 2 2 3 4 6 9 11 11 10 9 9 11 12 11 11 10 10 10 10 13 16 19 21 23 21 16 12 10 9 8 7 6
2 3 2 1 1 1 1 1 1 1 2 3 3 4 4 5 7 10 12 11 10 9 9 9 10 9 10 11 12 12 12 14 19 25 29 29 25 18 13 11 10 8 7 6
2 3 2 1 1 1 1 2 2 2 3 5 6 6 7 8 10 11 10 9 9 9 9 10 11 12 13 14 15 14 13 16 23 30 32 29 23 16 12 11 10 8 7 6
2 2 2 2 2 2 2 3 3 4 4 5 6 8 9 11 12 11 9 9 10 10 11 12 14 16 16 14 13 12 12 16 23 29 29 24 18 14 11 10 9 9 8 7
1 1 2 2 3 4 4 5 4 4 4 5 7 10 11 12 12 11 10 11 12 12 11 12 15 15 14 11 10 10 11 13 18 23 24 20 15 11 9 9 8 9 8 7
1 1 2 4 5 6 6 5 5 5 5 7 10 12 12 12 11 11 11 12 13 12 11 11 12 12 11 10 10 11 11 13 15 17 17 15 12 9 9 8 7 7 7 7
1 2 3 5 6 7 7 7 7 8 9 11 12 12 11 10 10 10 11 11 11 11 10 9 9 9 10 10 10 10 11 13 14 13 12 10 9 9 8 7 6 6 6 6
2 3 4 5 6 7 8 10 10 11 11 12 12 11 10 10 9 9 9 10 10 10 9 8 8 9 10 11 10 9 10 12 12 12 10 10 9 8 8 7 5 4 4 4
Wind_Speed
9 9 7 6 8 5 1 1 1 4 5 4 5 7 10 10 8 10 11 11 10 10 10 9 8 8 8 7 6 4 4 3 2 1 1 2 2 1 2 3 3 2 2 2
8 10 8 6 5 5 4 2 2 3 4 3 4 6 9 10 9 9 10 11 12 11 11 10 9 8 8 7 6 6 4 4 3 2 1 1 2 1 2 2 2 2 2 1
10 6 5 5 5 5 3 3 3 2 2 3 3 4 7 9 8 9 10 10 12 12 13 11 10 9 8 8 7 5 4 4 3 3 2 2 2 1 1 2 2 2 2 2
10 7 6 6 6 5 5 4 4 3 3 3 4 3 6 8 9 8 8 10 11 12 13 13 11 10 9 9 8 6 5 4 3 3 2 2 2 2 2 1 2 2 2 2
10 9 8 8 6 4 5 3 5 6 6 5 3 2 6 8 8 9 8 9 10 11 13 13 12 11 10 10 9 8 6 5 4 3 2 1 1 1 1 2 2 2 1 2
12 8 8 8 6 6 5 5 6 7 6 5 4 2 5 6 7 9 9 8 9 10 12 12 12 10 9 9 9 9 7 6 4 4 3 2 1 1 1 1 1 2 2 2
13 12 9 8 8 8 7 5 4 4 4 6 5 2 4 8 7 7 8 8 8 10 10 11 12 11 10 10 9 9 9 7 6 5 4 3 2 2 2 2 2 2 1 1
13 12 12 10 9 7 8 7 6 5 4 4 4 2 4 8 8 8 8 8 8 9 10 11 11 11 10 10 9 9 9 8 6 5 4 3 2 2 2 2 2 1 1 1
10 10 11 11 11 10 9 9 9 7 8 5 1 4 4 6 8 9 9 8 7 8 9 10 11 11 10 10 9 9 9 8 7 6 5 4 3 2 1 1 1 1 1 1
11 9 9 9 11 12 12 11 7 6 5 5 2 3 4 5 5 7 9 8 7 7 8 9 9 9 9 8 8 8 8 7 6 6 5 5 4 3 2 1 1 0 0 1
12 10 10 10 11 11 11 11 8 5 5 5 4 1 4 5 6 6 7 9 7 6 8 8 8 9 8 8 8 8 8 7 6 5 4 3 3 3 2 1 1 0 0 0
11 10 9 12 11 10 11 11 9 6 5 5 3 2 2 3 4 5 7 9 9 7 7 7 7 8 8 7 7 7 7 7 6 5 4 3 3 3 3 2 2 1 1 1
7 7 9 12 11 11 12 11 10 9 6 5 4 3 4 3 4 5 6 8 8 7 7 6 6 7 7 6 6 6 6 6 6 6 5 4 3 3 2 2 2 1 1 1
7 8 11 12 8 8 11 12 11 10 7 6 7 7 6 5 4 5 7 7 7 7 6 6 5 5 6 5 5 6 5 5 5 5 5 4 4 3 3 2 2 2 2 2
9 10 12 13 13 13 11 12 12 12 11 10 8 6 4 5 6 5 4 6 7 7 6 6 5 5 5 5 5 5 5 4 5 5 4 3 3 3 3 3 2 2 2 3
8 9 11 13 14 14 15 14 13 13 11 10 7 5 3 5 6 6 4 3 6 6 5 5 5 5 4 4 5 4 4 4 5 4 4 4 3 3 3 3 2 2 2 2
8 8 10 11 14 15 16 13 13 12 10 9 8 6 4 4 5 6 6 5 4 5 5 5 4 4 4 4 4 4 4 4 4 4 3 3 3 3 3 3 3 2 3 3
7 6 7 10 12 17 11 10 11 10 9 7 5 3 3 3 4 4 5 4 3 4 3 4 4 3 4 4 4 3 4 5 4 3 3 3 3 3 3 3 3 3 2 3
7 7 9 10 13 14 12 10 9 7 7 6 4 4 2 1 3 4 6 5 3 3 3 3 3 4 3 4 4 3 4 4 4 3 3 2 3 3 2 3 3 2 3 3
9 7 9 10 12 12 8 5 5 5 6 3 3 2 1 1 3 3 6 5 4 4 3 2 2 2 2 2 3 3 3 4 4 3 3 2 2 2 2 3 3 3 3 4
13 12 13 13 13 10 6 3 3 7 1 3 2 2 0 3 4 6 6 5 5 4 3 3 3 2 2 2 2 2 2 3 2 2 2 2 2 3 3 2 2 3 4 4
10 10 11 10 12 9 4 2 1 3 4 4 4 4 4 5 6 6 5 5 4 4 3 3 3 2 2 1 1 1 1 1 1 2 2 3 3 3 3 2 3 4 4 4
7 5 4 4 3 1 4 4 5 3 3 3 3 4 4 3 4 5 4 3 3 4 3 2 2 2 2 1 1 1 1 1 1 2 3 2 3 3 3 4 4 3 3 4
6 4 4 3 3 1 1 1 1 2 2 3 3 2 2 2 3 3 3 3 3 2 2 1 1 1 1 1 1 0 1 1 1 2 2 3 4 4 4 3 3 3 3 4
5 4 4 4 2 2 2 2 2 1 1 1 1 1 1 1 2 2 2 2 2 2 1 1 1 1 1 1 1 1 1 1 2 3 3 4 5 4 3 3 3 3 3 3
6 6 6 4 2 3 2 2 3 2 1 1 1 0 0 0 0 1 2 2 1 1 1 1 1 1 1 1 1 1 1 2 2 3 3 4 4 3 3 3 3 3 4 5
Wind_Direction
211 226 223 206 220 237 229 217 176 119 123 141 129 134 141 145 159 154 152 153 155 153 151 151 149 143 138 134 132 126 119 117 104 82 132 127 110 106 94 104 97 100 101 113
225 231 229 213 227 240 226 232 197 146 144 160 148 142 139 149 157 152 153 158 159 157 153 153 155 155 149 145 144 142 142 137 137 122 108 115 113 114 113 101 115 121 120 136
235 236 227 220 232 242 247 238 240 193 181 183 180 158 147 150 145 148 155 159 159 160 159 159 161 160 156 153 152 150 143 139 145 146 143 121 118 95 93 111 123 126 148 148
238 235 238 236 234 242 252 251 265 257 245 228 191 148 159 157 154 153 159 161 160 159 159 161 163 162 163 158 154 147 143 139 140 149 150 156 153 158 150 147 136 145 163 154
233 223 226 235 242 246 269 297 291 286 275 271 199 178 159 152 160 159 164 160 155 159 159 162 164 165 166 161 157 154 144 144 147 150 145 165 144 159 151 147 153 156 165 176
250 235 228 238 239 237 256 266 275 273 277 264 242 191 144 148 153 155 156 154 155 155 154 156 156 158 162 159 157 153 148 154 160 164 156 163 167 191 176 173 180 178 177 184
237 234 227 232 235 234 238 252 271 272 261 248 223 202 131 128 130 138 145 148 149 148 150 154 155 160 163 163 159 152 153 164 169 173 168 175 194 202 206 219 208 198 182 181
230 223 220 223 230 240 245 243 244 250 250 249 203 135 119 124 131 134 138 142 146 148 151 154 157 162 167 163 158 157 158 164 171 174 173 177 197 207 213 237 235 221 190 175
247 230 215 218 226 230 244 245 244 256 267 267 158 116 142 124 129 132 139 143 154 155 152 154 160 164 165 162 162 162 160 164 173 173 172 170 183 212 208 245 262 200 237 205
259 262 239 227 225 229 241 255 253 249 265 276 253 175 159 141 141 143 145 145 143 146 142 148 154 155 156 157 157 158 160 163 169 168 181 178 183 188 179 196 280 15 331 23
239 251 243 232 226 231 231 246 262 289 282 262 271 312 143 175 167 154 144 137 137 152 141 147 149 151 152 158 158 156 156 158 167 170 174 169 171 171 169 177 183 204 175 236
235 249 247 242 232 236 247 248 246 246 256 276 273 291 220 216 161 149 135 130 143 153 139 139 142 147 152 157 159 156 161 166 166 163 165 170 171 173 180 182 181 193 189 222
245 251 249 240 233 224 242 244 246 250 246 255 253 221 204 179 154 130 124 124 129 130 129 129 134 142 149 155 149 153 163 165 167 164 168 174 180 184 189 186 177 197 202 230
249 245 253 252 250 243 239 246 248 254 254 239 236 212 207 163 128 104 112 120 125 128 129 129 131 136 145 148 148 153 162 162 159 159 171 177 183 187 197 200 195 202 213 222
238 241 249 261 266 266 257 246 244 248 257 258 248 227 201 146 126 114 123 136 137 133 134 131 135 142 148 149 150 154 161 155 158 163 172 174 181 186 201 208 206 206 221 230
232 256 257 260 262 262 259 251 251 248 245 248 249 253 186 145 129 125 122 150 146 142 145 139 144 143 148 154 156 158 162 159 159 170 177 173 181 191 204 211 201 207 226 245
224 239 251 255 261 264 255 246 244 250 252 256 254 248 189 152 134 139 154 178 163 147 142 140 145 151 155 155 157 164 166 157 155 165 182 189 189 199 210 216 199 213 230 237
235 250 250 248 252 253 258 263 252 250 255 259 261 270 212 168 146 150 140 123 116 121 126 136 145 158 167 164 167 174 173 165 164 170 184 193 198 205 205 211 213 214 228 241
225 232 247 249 246 249 256 263 266 253 264 277 278 289 295 170 125 115 105 102 89 92 107 125 149 172 167 165 168 177 180 168 175 187 196 190 198 212 210 213 216 215 227 242
216 218 237 247 249 250 255 267 279 256 247 278 269 278 317 271 226 108 93 99 93 86 91 101 111 126 129 140 162 182 194 183 190 197 198 190 199 211 219 223 222 226 229 236
212 213 226 242 251 254 263 256 247 239 244 4 336 311 290 65 69 82 81 83 86 92 86 91 88 87 93 116 147 186 203 199 189 187 191 200 210 222 220 219 226 232 237 240
226 221 222 235 247 252 311 252 291 67 53 34 26 23 57 90 95 89 82 83 95 95 85 89 91 92 95 126 161 192 213 226 184 190 202 210 217 239 232 228 237 236 237 241
240 247 247 238 232 39 18 43 77 90 72 44 44 48 49 69 93 91 84 80 83 83 77 77 91 93 81 90 137 238 233 254 234 222 214 222 229 231 236 233 238 239 237 244
239 260 250 259 219 157 101 76 83 80 70 45 45 33 34 32 80 80 83 83 82 79 73 67 80 72 53 38 3 261 238 218 235 243 230 235 235 233 230 233 231 236 240 242
256 262 250 241 224 291 291 331 2 42 74 78 54 9 343 26 82 93 98 101 98 78 75 52 50 45 35 35 6 338 268 237 253 254 249 244 239 233 232 236 242 240 235 240
256 259 251 241 205 240 270 315 319 320 298 309 342 334 9 13 122 112 108 102 101 98 80 67 22 319 347 10 341 339 296 244 248 253 256 257 259 241 238 235 243 242 233 232